Погода в Усуне-Кюеле

Россия / Республика Саха (Якутия)     66˚20′41″N   150˚30′42″E
темп.,
°C
ветер,
м/с
пор.,
м/с
влажн.,
%
обл.,
%
осадки,
мм/ч
давл.,
гПа
погр.,
м
16 января, сб
сб1623:00−29˚зсз3498100 0.4 101992
02:00−30˚зсз3398100 0.2 101962
05:00−30˚зсз2398100 0.3 102050
08:00−30˚зсз2398100 0.2 102139
11:00−30˚зсз1298100 0.3 102227
14:00−31˚зюз119995 0.1 102320
17:00−33˚зюз1110095 0.1 102419
20:00−34˚з11100100 0.0 102619
17 января, вс
вс1723:00−36˚з12100100 0.1 102719
02:00−37˚сз22100100 0.0 102719
05:00−38˚зсз2210099 0.0 102719
08:00−39˚зсз1110079 0.0 102819
11:00−39˚з1110077 0.0 102819
14:00−36˚сз119795 0.0 102819
17:00−35˚сз119897 0.1 102819
20:00−36˚сз1198100 0.1 102919
18 января, пн
пн1823:00−36˚сз1298100 0.1 102919
02:00−38˚зсз2210099 0.0 102919
05:00−39˚сз22100100 0.0 102918
08:00−40˚сз2210094 0.0 103018
11:00−40˚сз2310066 0.0 103018
14:00−39˚сз239835 0.0 102919
17:00−40˚сз339840 0.0 103020
20:00−40˚сз239875 0.0 103020
19 января, вт
вт1923:00−39˚ссз229786 0.0 102918
02:00−40˚ссз229975 0.0 102818
05:00−41˚сз119966 0.0 102818
08:00−41˚ссз129959 0.0 102818
11:00−41˚сз1110059 0.0 102718
14:00−41˚сз119945 0.0 102718
17:00−42˚сз1110043 0.0 102718
20:00−43˚ю0010041 0.0 102718
20 января, ср
ср2023:00−43˚ю1110042 0.0 102718
02:00−43˚ююв129943 0.0 102618
05:00−43˚ююв229744 0.0 102618
08:00−44˚юв129745 0.0 102618
11:00−44˚ююв119846 0.0 102718
14:00−43˚вюв019648 0.0 102618
17:00−44˚ссз1110049 0.0 102718
20:00−43˚ссз229753 0.0 102718